Flag for Benin Weather past 2 weeks in Porto Novo, Benin

Now
75 °F

Passing clouds.


Feels Like: 73 °F
Forecast: 76 / 86 °F
Wind: 3 mph from West

Location: Cotonou Airport

Current Time: Oct 2, 2014 at 6:26:50 AM

Latest Report: Oct 2, 2014 at 6:00 AM


Visibility: N/A

Pressure: 29.89 "Hg

Humidity: 100%

Dew point: 75 °F

Location of Porto NovoLocation

Historic Weather in Porto Novo — Graph

°F

Porto Novo temperature yesterday

Maximum temperature yesterday: 82 °F (at 12:00 PM)
Minimum temperature yesterday: 75 °F (at 4:00 AM)
Average temperature yesterday: 78 °F

Past Weeks' High & Low Weather Summary

 TemperatureHumidityPressure
High86 °F (Sep 25, 3:00 PM)100% (Sep 17, 5:00 AM)29.98 "Hg (Sep 17, 5:00 AM)
Low72 °F (Sep 26, 4:00 PM)79% (Sep 25, 3:00 PM)29.80 "Hg (Sep 22, 4:00 PM)
Average78 °F96%29.89 "Hg
* Reported Sep 17 5:00 AM — Oct 2 5:00 AM, Porto Novo, Weather by CustomWeather, © 2014

Note: Actual official high and low records may vary slightly from our data, if they occured in-between our weather recording intervals... More about our weather records

Advertising

Porto Novo weather history for previous 24 hours

 ConditionsComfort  
Time TempWeatherWind HumidityBarometerVisibility
5:00 AM
Oct 2
75 °FPassing clouds.3 mph100%29.89 "HgN/A
4:00 AM75 °FPassing clouds.3 mph100%29.89 "HgN/A
3:00 AM75 °FPassing clouds.3 mph100%29.89 "HgN/A
1:00 AM77 °FPassing clouds.7 mph100%29.92 "HgN/A
12:00 AM77 °FPassing clouds.8 mph100%29.95 "HgN/A
11:00 PM
Oct 1
77 °FPassing clouds.8 mph100%29.92 "HgN/A
10:00 PM77 °FPassing clouds.8 mph100%29.92 "HgN/A
9:00 PM77 °FPassing clouds.9 mph100%29.89 "HgN/A
8:00 PM77 °FPassing clouds.12 mph100%29.89 "HgN/A
7:00 PM77 °FPassing clouds.13 mph100%29.86 "HgN/A
6:00 PM79 °FScattered clouds.15 mph94%29.83 "HgN/A
5:00 PM81 °FScattered clouds.15 mph89%29.83 "HgN/A
4:00 PM82 °FScattered clouds.15 mph89%29.83 "HgN/A
3:00 PM79 °FBroken clouds.14 mph94%29.86 "HgN/A
2:00 PM81 °FScattered clouds.12 mph94%29.89 "HgN/A
1:00 PM79 °FLight rain. Broken clouds.15 mph100%29.92 "Hg4 mi
12:00 PM82 °FScattered clouds.12 mph89%29.92 "HgN/A
11:00 AM81 °FScattered clouds.10 mph94%29.95 "HgN/A
10:00 AM79 °FScattered clouds.10 mph100%29.95 "HgN/A
9:00 AM75 °FBroken clouds.5 mph100%29.95 "Hg6 mi
8:00 AM75 °FLight rain. Broken clouds.2 mph100%29.92 "Hg2 mi
7:00 AM75 °FLight rain. Broken clouds.1 mph100%29.92 "Hg4 mi
6:00 AM75 °FPartly cloudy.3 mph100%29.89 "Hg5 mi
Weather by CustomWeather, © 2014

See weather overviewHow to use our weather pages